Regional Weather Roundup
Issued by NWS State College, PA

Home | Current Version | Previous Version | Graphics & Text | Print | Product List | Glossary Off
Versions: 1 2 3 4 5 6 7 8 9 10 11 12 13 14 15 16 17 18 19 20 21 22 23 24 25 26 27 28 29 30 31 32 33 34 35 36 37 38 39 40 41 42 43 44 45 46 47 48 49 50

000
ASUS41 KCTP 310110
RWRCTP

REGIONAL WEATHER ROUNDUP
NATIONAL WEATHER SERVICE STATE COLLEGE PA
900 PM EDT SUN AUG 30 2015

Note: "fair" indicates few or no clouds below 12,000 feet with no
significant weather and/or obstructions to visibility.

* = STATION THAT DOES NOT REPORT PRECIPITATION /E.G. RAIN...SNOW...ETC/
    THUNDER OR FOG.

PAZ002>004-007>009-013>016-020>023-029>032-310200-
WESTERN PENNSYLVANIA

CITY           SKY/WX    TMP DP  RH WIND       PRES   REMARKS
ERIE           MOCLDY    73  67  81 S3        30.05R
MEADVILLE      MOCLDY    73  66  78 SE3       30.09R
FRANKLIN*      MOCLDY    70  66  88 S5        30.11S
NEW CASTLE     FAIR      71  69  93 CALM      30.09R
BEAVER COUNTY  NOT AVBL
BUTLER*        MOCLDY    72  66  83 CALM      30.11R
PITTSBURGH INT CLOUDY    77  66  68 S5        30.09R
PITTSBURGH     MOCLDY    77  62  59 SW10      30.09R
INDIANA*       CLOUDY    72  68  88 SW5       30.15R
LATROBE        MOCLDY    73  70  88 CALM      30.11R
WASHINGTON CO* MOCLDY    72  66  83 CALM      30.11R
$$

PAZ004>006-010>012-017>019-024>028-033>037-041-042-045-046-049>053-310200-
CENTRAL PENNSYLVANIA

CITY           SKY/WX    TMP DP  RH WIND       PRES   REMARKS
BRADFORD       PTCLDY    66  63  90 CALM      30.13R
DUBOIS         MOCLDY    69  66  90 CALM      30.12R FOG
CLEARFIELD     MOCLDY    72  65  78 CALM      30.11R
JOHNSTOWN      MOCLDY    72  60  66 W7        30.15R
ALTOONA        MOCLDY    74  63  68 SW3       30.12R
STATE COLLEGE  MOCLDY    75  66  73 CALM      30.09R
WILLIAMSPORT   MOCLDY    72  70  93 CALM      30.05R
SELINSGROVE    MOCLDY    70  68  93 CALM      30.05R
FT INDIANTOWN  PTCLDY    73  69  87 N1        30.06R
CAPITAL CITY   MOCLDY    77  64  64 W7        30.06R
HARRISBURG     CLOUDY    79  65  62 SW9       30.05R
YORK           CLOUDY    73  67  81 S8        30.07R
$$

PAZ038>040-043-044-047-048-054-055-060>062-067>071-310200-
EASTERN PENNSYLVANIA

CITY           SKY/WX    TMP DP  RH WIND       PRES   REMARKS
SCRANTON       MOCLDY    77  65  66 S3        30.07R
MOUNT POCONO   PTCLDY    69  65  86 W5        30.12R
ALLENTOWN      PTCLDY    74  65  73 CALM      30.05R
QUAKERTOWN*    PTCLDY    77  68  73 SW3       30.07S
READING        PTCLDY    79  67  66 S6        30.04R
LANCASTER      PTCLDY    78  69  73 S7        30.06R
COATESVILLE    MOCLDY    75  68  78 CALM      30.09R
POTTSTOWN      PTCLDY    74  69  85 CALM      30.08R
BLUE BELL      MOCLDY    81  68  65 SW5       30.06R
DOYLESTOWN     MOCLDY    79  65  62 SW6       30.05R
WILLOW GROVE   NOT AVBL
NORTH PHILA    CLOUDY    84  61  45 SW8       30.07R
PHILADELPHIA   MOCLDY    83  65  54 SW9       30.07R
$$



USA.gov is the U.S. government's official web portal to all federal, state and local government web resources and services.